TimeCDT,TemperatureF,Dew PointF,Humidity,Sea Level PressureIn,VisibilityMPH,Wind Direction,Wind SpeedMPH,Gust SpeedMPH,PrecipitationIn,Events,Conditions,WindDirDegrees,DateUTC
12:56 AM,72.0,72.0,100,29.97,10.0,Calm,Calm,-,N/A,,Clear,0,2013-08-13 05:56:00
1:56 AM,72.0,72.0,100,29.96,10.0,Calm,Calm,-,N/A,,Clear,0,2013-08-13 06:56:00
2:56 AM,70.9,70.9,100,29.96,10.0,Calm,Calm,-,N/A,,Partly Cloudy,0,2013-08-13 07:56:00
3:56 AM,70.9,70.0,97,29.96,10.0,Calm,Calm,-,N/A,,Clear,0,2013-08-13 08:56:00
4:35 AM,69.8,69.8,100,29.95,10.0,Calm,Calm,-,N/A,,Mostly Cloudy,0,2013-08-13 09:35:00
4:56 AM,70.9,70.9,100,29.97,10.0,Calm,Calm,-,N/A,,Overcast,0,2013-08-13 09:56:00
5:48 AM,71.6,71.6,100,29.96,10.0,WNW,5.8,-,N/A,,Overcast,290,2013-08-13 10:48:00
5:56 AM,72.0,70.9,96,29.98,10.0,WNW,3.5,-,N/A,,Overcast,300,2013-08-13 10:56:00
6:56 AM,72.0,72.0,100,29.99,2.5,WSW,3.5,-,N/A,,Overcast,240,2013-08-13 11:56:00
7:01 AM,71.6,71.6,100,29.98,4.0,Calm,Calm,-,N/A,,Overcast,0,2013-08-13 12:01:00
7:56 AM,73.9,72.0,93,30.00,10.0,Calm,Calm,-,N/A,,Overcast,0,2013-08-13 12:56:00
8:56 AM,74.8,72.0,91,30.01,10.0,SW,3.5,-,N/A,,Overcast,230,2013-08-13 13:56:00
9:17 AM,75.2,73.4,94,30.00,10.0,WSW,4.6,-,N/A,,Overcast,240,2013-08-13 14:17:00
9:56 AM,75.9,72.0,87,30.02,10.0,SSW,4.6,-,N/A,,Overcast,200,2013-08-13 14:56:00
10:56 AM,79.0,73.9,84,30.02,10.0,Calm,Calm,-,N/A,,Mostly Cloudy,0,2013-08-13 15:56:00
11:14 AM,78.8,71.6,78,30.00,10.0,Calm,Calm,-,N/A,,Mostly Cloudy,0,2013-08-13 16:14:00
11:56 AM,81.9,72.0,72,30.01,10.0,Variable,5.8,-,N/A,,Overcast,0,2013-08-13 16:56:00
12:56 PM,82.9,73.9,74,29.99,10.0,WNW,6.9,-,0.00,,Mostly Cloudy,290,2013-08-13 17:56:00
1:03 PM,84.2,71.6,66,29.98,10.0,NW,8.1,-,0.01,,Scattered Clouds,320,2013-08-13 18:03:00
1:56 PM,82.9,70.0,65,29.99,10.0,NNW,8.1,-,0.01,,Scattered Clouds,330,2013-08-13 18:56:00
2:56 PM,86.0,70.0,59,29.96,10.0,North,8.1,-,N/A,,Partly Cloudy,360,2013-08-13 19:56:00
3:56 PM,86.0,70.9,60,29.94,10.0,North,6.9,-,N/A,,Partly Cloudy,350,2013-08-13 20:56:00
4:56 PM,84.9,70.0,61,29.94,10.0,North,9.2,-,N/A,,Partly Cloudy,360,2013-08-13 21:56:00
5:56 PM,82.9,70.9,67,29.95,10.0,NNE,9.2,-,N/A,,Partly Cloudy,20,2013-08-13 22:56:00
6:56 PM,79.9,70.9,74,29.95,10.0,North,8.1,-,N/A,,Partly Cloudy,350,2013-08-13 23:56:00
7:56 PM,77.0,68.9,76,29.97,10.0,North,6.9,-,N/A,,Clear,360,2013-08-14 00:56:00
8:56 PM,74.8,68.0,79,29.99,10.0,North,8.1,-,N/A,,Clear,360,2013-08-14 01:56:00
9:56 PM,73.9,68.9,84,30.02,10.0,North,6.9,-,N/A,,Clear,350,2013-08-14 02:56:00
10:56 PM,73.9,68.9,84,30.03,10.0,North,6.9,-,N/A,,Scattered Clouds,360,2013-08-14 03:56:00
11:56 PM,72.9,68.9,87,30.02,10.0,North,9.2,-,N/A,,Scattered Clouds,10,2013-08-14 04:56:00